BEIDOU 18 (C57)

Last updated on Jan. 19, 2020, 4:38 a.m. UTC

1 40748U 15037A   20018.27643355 -.00000070  00000-0  00000-0 0  9993
2 40748  55.8953  21.4495 0004666 312.3701 184.1033  1.86232130 30508
UTC
Height (km)
Latitude
Longitude
Inclination
Orbital Period
UTC large
Height (km)
Speed (km/s)
/
Latitude / Longitude
Inclination (degrees)
Orbital Period (minutes)
Azimuth
Elevation
Range (km)
Doppler Factor
iOS Compass Heading
iOS Angle

Next 30 passes for location: Hong Kong

Rise time Rise Azimuth (degrees) Set time Set Azimuth (degrees) Duration Max altitude (degrees)

No matching passes for this satellites